N9VPV Weather Reports


Display with metric or nautical units.
time (UTC)temp
F
wind
direction
speed
MPH
gust
MPH
rain 1hr
in
rain 24hr
in
rain mn
in
humidity
%
barometer
mb
20260504130759 58 243 2.0 8.0 0.00 0.00 0.00 74 1003.3
20260504110712 48 169 0.0 0.0 0.00 0.00 0.00 82 1003.9
20260504080457 48 190 0.0 0.0 0.00 0.00 0.00 84 1005.0
20260504050355 54 198 0.0 0.0 0.00 0.00 0.00 71 1006.6
20260504044853 55 198 0.0 0.0 0.00 0.00 0.00 69 1006.5
20260504043347 56 197 0.0 0.0 0.00 0.00 0.00 67 1006.7
20260504041848 57 186 0.0 0.0 0.00 0.00 0.00 65 1006.8
20260504040320 58 229 1.0 2.0 0.00 0.00 0.00 63 1006.8
20260504034817 58 221 1.0 4.0 0.00 0.00 0.00 63 1006.9
20260504033316 58 220 0.0 2.0 0.00 0.00 0.00 61 1007.0
20260504031809 59 206 0.0 2.0 0.00 0.00 0.00 59 1007.1
20260504030307 60 220 1.0 7.0 0.00 0.00 0.00 58 1007.0
20260504024801 60 237 1.0 5.0 0.00 0.00 0.00 57 1007.0
20260504023258 61 227 1.0 5.0 0.00 0.00 0.00 56 1006.9
20260504021756 61 221 1.0 4.0 0.00 0.00 0.00 54 1006.9
20260504020251 62 205 1.0 4.0 0.00 0.00 0.00 53 1006.8
20260504014751 63 238 1.0 4.0 0.00 0.00 0.00 51 1006.8
20260504013239 64 209 1.0 5.0 0.00 0.00 0.00 50 1006.8
20260504011736 65 222 1.0 6.0 0.00 0.00 0.00 49 1006.7
20260504010219 66 217 1.0 4.0 0.00 0.00 0.00 48 1006.6
20260504004719 67 250 2.0 7.0 0.00 0.00 0.00 46 1006.5
20260504003217 68 207 1.0 7.0 0.00 0.00 0.00 45 1006.5
20260504001713 69 250 2.0 10.0 0.00 0.00 0.00 43 1006.5
20260504000212 69 271 3.0 10.0 0.00 0.00 0.00 42 1006.6
20260503234709 70 295 2.0 9.0 0.00 0.00 0.00 43 1006.6
20260503233208 70 247 3.0 8.0 0.00 0.00 0.00 44 1006.6
20260503231708 70 241 2.0 8.0 0.00 0.00 0.00 45 1006.7
20260503230208 70 229 2.0 8.0 0.00 0.00 0.00 45 1006.7
20260503224711 70 250 2.0 10.0 0.00 0.00 0.00 45 1006.8
20260503223205 71 300 4.0 11.0 0.00 0.00 0.00 44 1006.8
20260503221701 70 230 4.0 10.0 0.00 0.00 0.00 44 1006.8
20260503220159 70 223 3.0 10.0 0.00 0.00 0.00 44 1007.0
20260503214657 69 226 4.0 12.0 0.00 0.00 0.00 45 1007.0
20260503213156 69 223 4.0 14.0 0.00 0.00 0.00 44 1007.2
20260503211656 68 183 5.0 13.0 0.00 0.00 0.00 46 1007.3
20260503210152 68 164 5.0 13.0 0.00 0.00 0.00 46 1007.5
20260503204653 68 292 6.0 15.0 0.00 0.00 0.00 46 1007.6
20260503203153 68 219 4.0 15.0 0.00 0.00 0.00 48 1007.6
20260503201652 68 193 6.0 16.0 0.00 0.00 0.00 46 1007.9
20260503200150 69 300 5.0 14.0 0.00 0.00 0.00 48 1007.7
20260503194650 68 249 6.0 14.0 0.00 0.00 0.00 47 1007.8
20260503193150 66 287 7.0 21.0 0.00 0.00 0.00 47 1008.2
20260503191649 67 233 7.0 21.0 0.00 0.00 0.00 45 1008.0
20260503190149 67 238 7.0 24.0 0.00 0.00 0.00 45 1008.6
20260503184649 67 274 8.0 18.0 0.00 0.00 0.00 45 1008.4
20260503183146 67 228 8.0 23.0 0.00 0.00 0.00 46 1008.8
20260503181646 67 227 8.0 23.0 0.00 0.00 0.00 45 1008.8
20260503180147 66 217 8.0 23.0 0.00 0.00 0.00 45 1009.3
20260503174646 65 232 7.0 19.0 0.00 0.00 0.00 45 1009.2
20260503173147 65 261 7.0 16.0 0.00 0.00 0.00 45 1009.6
20260503171646 64 257 6.0 19.0 0.00 0.00 0.00 45 1009.8
20260503170146 62 168 7.0 21.0 0.00 0.00 0.00 49 1009.9
20260503160147 56 218 4.0 14.0 0.00 0.00 0.00 60 1011.5
20260503150139 53 169 4.0 11.0 0.00 0.00 0.00 62 1012.3
20260503140135 51 165 2.0 10.0 0.00 0.00 0.00 63 1013.3